Estación de Morza Norte

Ultimos registro cada 15 minutos 40
Estación Fecha / Hora Temperatura Humedad Lluvia Velocidad Dirección Radiación Presion
40 Morza Norte 08-05-2026 09:45 7,6 74 0 0 157 339 1024
39 Morza Norte 08-05-2026 09:30 7 99 0 0 289 299 1024
38 Morza Norte 08-05-2026 09:15 6,7 74 0 0 319 264 1023,5
37 Morza Norte 08-05-2026 09:00 6,6 74 0 0 300 211 1023,8
36 Morza Norte 08-05-2026 08:45 5,8 74 0 0 93 179 1023,8
35 Morza Norte 08-05-2026 08:30 3,9 74 0 0 107 134 1023,8
34 Morza Norte 08-05-2026 08:15 2,9 73 0 0 108 93 1023,7
33 Morza Norte 08-05-2026 08:00 1,8 72 0 0 140 54 1023,4
32 Morza Norte 08-05-2026 07:45 1,8 72 0 0 140 12 1023,7
31 Morza Norte 08-05-2026 07:30 1,4 73 0 0 146 5 1023,8
30 Morza Norte 08-05-2026 07:15 1,1 72 0 0 245 0 1023,7
29 Morza Norte 08-05-2026 07:00 1,6 72 0,2 0 245 0 1023,8
28 Morza Norte 08-05-2026 06:45 1,7 72 0 0 245 0 1023,8
27 Morza Norte 08-05-2026 06:30 2 99 0 0 247 0 1023,9
26 Morza Norte 08-05-2026 06:15 1,8 72 0 0 248 0 1024,2
25 Morza Norte 08-05-2026 06:00 1,8 72 0 0 248 0 1024,2
24 Morza Norte 08-05-2026 05:45 2,1 99 0 0 248 0 1024,4
23 Morza Norte 08-05-2026 05:30 2,1 72 0 0 248 0 1024,1
22 Morza Norte 08-05-2026 05:15 2 72 0 0 246 0 1024,3
21 Morza Norte 08-05-2026 05:00 1,9 72 0 0 246 0 1024,2
20 Morza Norte 08-05-2026 04:45 1,9 99 0 0 246 0 1024,2
19 Morza Norte 08-05-2026 04:30 1,7 72 0 0 246 0 1024,2
18 Morza Norte 08-05-2026 04:15 1,7 72 0 0 246 0 1023,9
17 Morza Norte 08-05-2026 04:00 1,3 70 0 0 246 0 1024,5
16 Morza Norte 08-05-2026 03:45 1,3 70 0 0 246 0 1024,5
15 Morza Norte 08-05-2026 03:30 1,7 99 0 0 246 0 1024,3
14 Morza Norte 08-05-2026 03:15 2,1 70 0 0 246 0 1024,4
13 Morza Norte 08-05-2026 03:00 2,4 70 0 0 246 0 1024,7
12 Morza Norte 08-05-2026 02:45 2,8 70 0 0 246 0 1024,8
11 Morza Norte 08-05-2026 02:30 3,3 99 0 0 246 0 1024,8
10 Morza Norte 08-05-2026 02:15 3,4 69 0 0 246 0 1025
9 Morza Norte 08-05-2026 02:00 3,3 67 0 0 248 0 1024,9
8 Morza Norte 08-05-2026 01:45 3,9 67 0 0 248 0 1025,1
7 Morza Norte 08-05-2026 01:30 4,6 68 0 0 248 0 1025,3
6 Morza Norte 08-05-2026 01:15 4,7 67 0 0 253 0 1025,4
5 Morza Norte 08-05-2026 01:00 5,1 67 0 0 253 0 1025,4
4 Morza Norte 08-05-2026 00:45 5,8 67 0 0 253 0 1025,6
3 Morza Norte 08-05-2026 00:30 6,6 66 0 0 253 0 1025,7
2 Morza Norte 08-05-2026 00:15 7,4 67 0 0 253 0 1025,9
1 Morza Norte 08-05-2026 00:00 7,8 67 0 0 135 0 1026